Preview of NWS' New Version of Forecast
This preview is not operational and should not be used for support decisions.

Regional Weather Roundup (RWR)

Issued by National Weather Service (NWS)

                            
000
ASUS42 KTBW 200115
RWRFL 
FLORIDA REGIONAL WEATHER ROUNDUP
NATIONAL WEATHER SERVICE TAMPA BAY RUSKIN FL
900 PM EDT FRI APR 19 2019

NOTE: "FAIR" INDICATES FEW OR NO CLOUDS BELOW 12,000 FEET WITH NO
SIGNIFICANT WEATHER AND/OR OBSTRUCTIONS TO VISIBILITY.

FLZ001>010-012>015-112-114-115-200200-
PANHANDLE FLORIDA
  
CITY           SKY/WX    TMP DP  RH WIND       PRES   REMARKS
PENSACOLA      FAIR      57  44  62 NW8       29.81R                  
PENSACOLA NAS  FAIR      56  46  69 VRB3      29.82R                  
MILTON NAS     FAIR      52  47  83 W3        29.81R                  
CRESTVIEW      FAIR      55  45  68 NW6       29.81R                  
DUKE FIELD     FAIR      56  46  68 NW3       29.80R                  
VALPARAISO     MOCLDY    59  43  56 NW10      29.80R                  
MARY ESTHER    PTCLDY    59  42  53 CALM      29.80R                  
PANAMA CITY    FAIR      59  45  59 W8        29.78R                  
TYNDALL AFB    MOCLDY    62  47  58 NW12      29.79R                  
APALACHICOLA   FAIR      60  46  59 W10       29.79R                  

STATION/POSITION SKY/WX   TEMP    WIND        PRES    WAVE   SWELL
                          AIR SEA DIR/SP/G            HT/PER HT/PER
                          (F)     (DEG/KT/KT) (MB)    (FT/S) (FT/S)
30.1N   87.6W                                 1010.3R   6/ 6
29.2N   88.2W                     320/ 16/ 19 1011.4
PANAMA CITY BEAC           62 71  300/ 11/ 14 1008.8R
TOWER C          NOT AVBL

$$
FLZ011-016>038-118-127-128-134-139-239-200200-
NORTH FLORIDA
  
CITY           SKY/WX    TMP DP  RH WIND       PRES   REMARKS
MARIANNA       FAIR      58  47  66 W12       29.78R                  
TALLAHASSEE    FAIR      61  47  59 W8        29.77R                  
PERRY          FAIR      63  47  55 W12       29.77R                  
LIVE OAK       CLEAR     63  46  55 VRB7G14   29.75R                  
CROSS CITY     FAIR      63  51  64 W14G20    29.78R                  
LAKE CITY      FAIR      61  50  67 W13G23    29.75R                  
GAINESVILLE    MOCLDY    67  53  61 W16       29.79R                  
PALATKA        CLOUDY    63  55  77 SW8G16    29.78R                  
MAYPORT NAS    FAIR      66  57  72 SW15G22   29.73R                  
JACKSONVILLE   FAIR      65  52  62 SW15G25   29.72R                  
JAX NAS        FAIR      66  53  63 SW15      29.75R                  
JAX CECIL      PTCLDY    64  54  68 SW13G18   29.74R                  
FERNANDINA BEA FAIR      65  55  70 SW16      29.72R                  
ST AUGUSTINE   FAIR      65  55  70 W13G18    29.76R                  
PALM COAST     FAIR      65  60  86 W10G18    29.77R                  

STATION/POSITION SKY/WX   TEMP    WIND        PRES    WAVE   SWELL
                          AIR SEA DIR/SP/G            HT/PER HT/PER
                          (F)     (DEG/KT/KT) (MB)    (FT/S) (FT/S)
SHELL POINT      NOT AVBL
KEATON BEACH               66     260/ 23/ 27 1008.0R
CEDAR KEY                  67     270/ 16/ 24 1008.3R
FERNANDINA                 69 71  220/  9/ 15 1006.6R
30.7N   81.3W                 68                N/A     6/ 7
MAYPORT                    67 68  240/ 15/ 19 1006.7R
31.4N   80.9W              70 68  210/ 17/ 23 1003.8R   8/ 7
ST AUGUSTINE               66 73  240/ 11/ 15 1007.6R

$$
FLZ040-043>046-052-053-057-058-063-144-200200-
INTERIOR CENTRAL FLORIDA
  
CITY           SKY/WX    TMP DP  RH WIND       PRES   REMARKS
OCALA          FAIR      65  54  67 SW5       29.80R                  
LEESBURG       FAIR      65  56  72 SW8       29.82R                  
SANFORD        FAIR      66  60  81 W16       29.80R                  
ORLANDO EXEC   FAIR      68  63  84 W14       29.81R                  
ORLANDO INTL   FAIR      68  58  70 W14       29.82R                  
KISSIMMEE      CLOUDY    67  64  90 W8        29.84R                  
WINTER HAVEN   FAIR      67  59  75 W6        29.85R                  
LAKELAND       CLEAR     64  55  72 W5        29.85R                  
BARTOW         FAIR      66  61  82 W6        29.84R                  
SEBRING        CLOUDY    70  65  85 W12       29.86R                  
OKEECHOBEE     MOCLDY    68  66  94 S7        29.85R                  

$$
FLZ041-047-054-059-064-141-147-200200-
EAST CENTRAL FLORIDA
  
CITY           SKY/WX    TMP DP  RH WIND       PRES   REMARKS
DAYTONA BEACH  MOCLDY    66  65  96 SW10      29.77R                  
DELAND         FAIR      66  61  82 SW9       29.79R                  
NEW SMYRNA BEA MOCLDY    66  63  88 SW12      29.78R                  
JFK SPACE CTR  CLOUDY    69  66  89 W20       29.78R                  
TITUSVILLE     CLOUDY    72  70  94 SW10      29.81R                  
CAPE CANAVERAL MOCLDY    70  64  81 W18G25    29.77R                  
PATRICK AFB    FAIR      70  70 100 SW17      29.78S                  
MELBOURNE      CLOUDY    70  67  90 SW13      29.80R                  
VERO BEACH     MOCLDY    70  68  93 SW14      29.82R                  
FT PIERCE      LGT RAIN  70  67  90 SW12      29.84R                  
STUART         MOCLDY    72  68  88 SW18G24   29.87R                  

STATION/POSITION SKY/WX   TEMP    WIND        PRES    WAVE   SWELL
                          AIR SEA DIR/SP/G            HT/PER HT/PER
                          (F)     (DEG/KT/KT) (MB)    (FT/S) (FT/S)
28.5N   80.2W              74     230/ 23/ 29 1008.3R   6/ 5   2/13
28.9N   78.5W              74 77  170/ 31/ 45 1010.3R   9/ 7
TRIDENT PIER               70 78  220/ 15/ 20 1009.5S
28.4N   80.5W                 77                N/A     4/ 7
27.5N   80.2W                 77                N/A     4/ 5

$$
FLZ050-056-061-142-242-148-248-149-249-151-251-155-255-
160-260-200200-
WEST CENTRAL FLORIDA
  
CITY           SKY/WX    TMP DP  RH WIND       PRES   REMARKS
CRYSTAL RIVER  MOCLDY    66  52  59 W14G24    29.81R                  
INVERNESS      FAIR      64  55  72 W3        29.81R                  
BROOKSVILLE    FAIR      67  49  52 W15       29.83R                  
CLEARWATER AIR FAIR      68  52  56 W14G21    29.84R                  
ST PETE CLEARW FAIR      68  49  50 W17G23    29.84R                  
TAMPA INTL     FAIR      70  52  52 W21G28    29.84R                  
PLANT CITY     FAIR      66  54  63 W7        29.86R                  
MACDILL AFB    FAIR      69  53  55 W9        29.85R                  
PETER O KNIGHT MOCLDY    70  55  60 W10G17    29.85R                  
ST PETERSBURG  FAIR      70  54  56 W18       29.83R                  
SARASOTA       FAIR      70  52  52 W20G31    29.84R                  
VENICE         MOCLDY    72  55  56 W23       29.87R                  

STATION/POSITION SKY/WX   TEMP    WIND        PRES    WAVE   SWELL
                          AIR SEA DIR/SP/G            HT/PER HT/PER
                          (F)     (DEG/KT/KT) (MB)    (FT/S) (FT/S)
27.3N   84.2W                 75                N/A    11/ 8   2/11
CLEARWATER BEACH           71 77  260/ 22/ 30 1010.2R
MIDDLE TAMPA BAY           72     300/ 22/ 28 1010.7R
VENICE                     73 77  270/ 26/ 29 1011.1R

$$
FLZ066-069-070-075>078-162-262-165-265-200200-
SOUTHWEST FLORIDA AND KEYS
  
CITY           SKY/WX    TMP DP  RH WIND       PRES   REMARKS
PUNTA GORDA    FAIR      70  57  63 NW12      29.88R                  
FT MYERS       FAIR      71  58  63 NW8       29.87R                  
SOUTHWEST INTL CLOUDY    71  61  70 W7        29.88R                  
NAPLES         FAIR      73  65  75 NW13G23   29.88R                  
MARCO ISLAND   FAIR      73  65  75 W13G22    29.89R                  
IMMOKALEE      MOCLDY    70  68  94 W5        29.85R                  
MARATHON       MOCLDY    83  72  69 S17G28    29.88R                  
KEY WEST NAS   TSTM      77  73  87 W26       29.94R                  
KEY WEST INTL  LGT RAIN  75  72  90 W16G28    29.94R FOG              

STATION/POSITION SKY/WX   TEMP    WIND        PRES    WAVE   SWELL
                          AIR SEA DIR/SP/G            HT/PER HT/PER
                          (F)     (DEG/KT/KT) (MB)    (FT/S) (FT/S)
NAPLES                     74 80  240/ 17/ 21 1011.8R
DRY TORTUGAS               76     300/ 18/ 20 1012.0R
SAND KEY                   75                 1013.3R
SOMBRERO KEY               80                 1011.0R

$$
FLZ067-068-071>074-168-172>174-200200-
SOUTHEAST FLORIDA 
  
CITY           SKY/WX    TMP DP  RH WIND       PRES   REMARKS
W PALM BEACH   CLOUDY    71  67  87 W18G29    29.87R THUNDER          
BOCA RATON     PTCLDY    81  73  78 SW12G21   29.87R                  
FT LAUDER-EXEC MOCLDY    82  72  71 S12       29.86R THUNDER          
FT LAUDERDALE  MOCLDY    81  72  74 S10       29.86R                  
POMPANO BEACH  FAIR      81  72  74 S12       29.86R                  
PEMBROKE PINES FAIR      82  71  69 S12       29.87R                  
OPA LOCKA      FAIR      82  71  69 S13       29.87R                  
MIAMI          CLOUDY    81  72  74 S10       29.87R                  
WEST KENDALL   MOCLDY    81  72  74 S8        29.88R                  
HOMESTEAD      MOCLDY    79  73  80 S6        29.87R                  

STATION/POSITION SKY/WX   TEMP    WIND        PRES    WAVE   SWELL
                          AIR SEA DIR/SP/G            HT/PER HT/PER
                          (F)     (DEG/KT/KT) (MB)    (FT/S) (FT/S)
PORT EVERGLADES            81     180/ 10/ 14 1010.7
VIRGINIA KEY               81 83  170/ 11/ 13 1010.8R
LAKE WORTH                 72 80  280/ 11/ 19 1012.3R
SETTLEMENT POINT           79     180/ 19/ 23 1011.5R

$$